This is the latest recevied weather packets stored in our database for station/object DB0ADS-6. If no packets are shown the sender has not sent any weather packets the latest 10 day(s).
| Time | Temp. | Humidity | Pressure | Rain* | Wind** | Luminosity | Snow |
|---|---|---|---|---|---|---|---|
| 1777943434 | 13.33° C | 78% | 1008.6 hPa | 0 mm | - | - | - |
| 1777943133 | 13.33° C | 81% | 1008.9 hPa | 0 mm | - | - | - |
| 1777942831 | 13.33° C | 82% | 1009.1 hPa | 0 mm | - | - | - |
| 1777942529 | 13.33° C | 80% | 1009.2 hPa | 0 mm | - | - | - |
| 1777942227 | 13.33° C | 79% | 1009.2 hPa | 0 mm | - | - | - |
| 1777941925 | 13.33° C | 78% | 1009.3 hPa | 0 mm | - | - | - |
| 1777941624 | 13.33° C | 78% | 1009.2 hPa | 0 mm | - | - | - |
| 1777941322 | 13.33° C | 79% | 1009.4 hPa | 0 mm | - | - | - |
| 1777941020 | 13.33° C | 79% | 1009.5 hPa | 0 mm | - | - | - |
| 1777940719 | 13.89° C | 78% | 1009.6 hPa | 0 mm | - | - | - |
| 1777940417 | 13.89° C | 75% | 1009.6 hPa | 0 mm | - | - | - |
| 1777940115 | 13.89° C | 75% | 1009.5 hPa | 0 mm | - | - | - |
| 1777939874 | 13.33° C | 79% | 1009.4 hPa | 0 mm | - | - | - |
| 1777939572 | 13.33° C | 81% | 1009.7 hPa | 0 mm | - | - | - |
| 1777939270 | 13.33° C | 81% | 1009.7 hPa | 0 mm | - | - | - |
| 1777938988 | 13.89° C | 78% | 1009.8 hPa | 0 mm | - | - | - |
| 1777938667 | 13.89° C | 75% | 1009.8 hPa | 0 mm | - | - | - |
| 1777938365 | 14.44° C | 71% | 1009.8 hPa | 0 mm | - | - | - |
| 1777938063 | 15° C | 70% | 1009.8 hPa | 0 mm | - | - | - |
| 1777937762 | 15° C | 68% | 1009.8 hPa | 0 mm | - | - | - |
| 1777937460 | 15° C | 67% | 1009.8 hPa | 0 mm | - | - | - |
| 1777937178 | 15° C | 67% | 1009.6 hPa | 0 mm | - | - | - |
| 1777936876 | 15° C | 66% | 1009.7 hPa | 0 mm | - | - | - |
| 1777936554 | 15° C | 67% | 1009.7 hPa | 0 mm | - | - | - |
| 1777936252 | 15° C | 66% | 1009.9 hPa | 0 mm | - | - | - |
* Rain latest hour (hover to see other rain measurements)
** Current wind speed in m/s (hover to see current wind gust speed)